Regional Weather Roundup
Issued by NWS Upton, NY

Home | Current Version | Previous Version | Text Only | Print | Product List | Glossary On
Versions: 1 2 3 4 5 6 7 8 9 10 11 12 13 14 15 16 17 18 19 20 21 22 23 24 25 26 27 28 29 30 31 32 33 34 35 36 37 38 39 40 41 42 43 44 45 46 47 48 49 50
000
ASUS41 KOKX 021505
RWROKX

REGIONAL WEATHER ROUNDUP
NATIONAL WEATHER SERVICE NEW YORK NY
1100 AM EDT THU OCT 02 2014

NOTE: "FAIR" INDICATES FEW OR NO CLOUDS BELOW 12,000 FEET WITH NO
SIGNIFICANT WEATHER AND/OR OBSTRUCTIONS TO VISIBILITY.

NYZ071-072-176-178-NJZ106-104-021600-
NEW YORK CITY METRO AREA


CITY           SKY/WX    TMP DP  RH WIND       PRES   REMARKS
CENTRAL PARK   CLOUDY    63  53  70 E7        30.18R
LAGUARDIA APRT CLOUDY    63  54  72 NE13      30.15R
KENNEDY INTL   CLOUDY    63  54  72 NE14      30.15R
NEWARK/LIBERTY CLOUDY    63  55  75 NE13      30.15R
BRNX BOT. GARD   N/A     63  54  72 W1        30.17R
TETERBORO      CLOUDY    65  54  67 N8        30.14R
$$

NYZ177-179-078>081-021600-
LONG ISLAND NEW YORK

CITY           SKY/WX    TMP DP  RH WIND       PRES   REMARKS
FARMINGDALE    CLOUDY    62  56  80 NE13      30.14R
ISLIP          DRIZZLE   61  57  87 N15       30.12R FOG
SHIRLEY        LGT RAIN  61  57  87 N9        30.15R FOG
WESTHAMPTON    LGT RAIN  61  56  83 N9        30.15R
MONTAUK POINT    N/A     60  56  86 N13       30.13R
$$

NYZ052-065-067-021600-
HUDSON VALLEY

CITY           SKY/WX    TMP DP  RH WIND       PRES   REMARKS
WHITE PLAINS   PTSUNNY   63  54  72 N9        30.15S
NEWBURGH       CLOUDY    61  57  88 NE9         N/A
MONTGOMERY     CLOUDY    63  56  78 N7        30.17S
POUGHKEEPSIE   CLOUDY    63  56  78 N9        30.16F
ALBANY         CLOUDY    62  56  80 CALM      30.20R
$$

NJZ001-105-106-008-010-013-015-019>022-104-021600-
NEW JERSEY

CITY           SKY/WX    TMP DP  RH WIND       PRES   REMARKS
NEWARK/LIBERTY CLOUDY    63  55  75 NE13      30.15R
TETERBORO      CLOUDY    65  54  67 N8        30.14R
CALDWELL       CLOUDY    63  53  70 VRB6      30.16S
MORRISTOWN     CLOUDY    66  57  72 NE9       30.16S
SOMERVILLE     CLOUDY    66  54  65 VRB6      30.13S
LINDEN         CLOUDY    67  58  72 NE9       30.17R
SUSSEX         CLOUDY    64  57  78 NE7       30.16F
ANDOVER          N/A     61  56  83 VRB3      30.16F
TRENTON        CLOUDY    64  54  69 NE5       30.14S
MILLVILLE      CLOUDY    63  56  78 N8        30.14S
ATLANTIC CITY  CLOUDY    63  58  83 N12       30.13S
WRIGHTSTOWN    CLOUDY    63  57  81 N9        30.13R
TOMS RIVER     CLOUDY    63  55  77 NE9       30.14S
BELMAR         CLOUDY    61  54  77 N10       30.14S
$$

PAZ047>061-062-071-021600-
EASTERN PENNSYLVANIA

CITY           SKY/WX    TMP DP  RH WIND       PRES   REMARKS
PHILADELPHIA   PTSUNNY   67  55  65 VRB7      30.14F
ALLENTOWN      FAIR      65  54  67 NE9       30.15F
SCRANTON       PTSUNNY   68  54  60 NW3       30.14F
$$

CTZ002-004>006-009-010-012-RIZ004-006-007-MAZ004-011-015-021600-
SOUTHERN NEW ENGLAND
 IN CT

CITY           SKY/WX    TMP DP  RH WIND       PRES   REMARKS
BRADLEY INTL   LGT RAIN  59  55  87 N10       30.17S
HARTFORD       LGT RAIN  57  55  93 N12       30.17S FOG
DANBURY        CLOUDY    61  54  77 NE12      30.17F
WTRBRY/OXFORD  CLOUDY    57  52  82 NE12      30.18R
BRIDGEPORT     CLOUDY    61  56  83 NE12      30.15S
MERIDEN        CLOUDY    58  54  86 N6        30.16S
NEW HAVEN      LGT RAIN  61  56  83 N13       30.15S
CHESTER        LGT RAIN  57  54  88 N10       30.15S
GROTON         CLOUDY    58  55  90 N12       30.13R
WILLIMANTIC    CLOUDY    58  53  84 N7        30.16S

 IN RI

CITY           SKY/WX    TMP DP  RH WIND       PRES   REMARKS
PROVIDENCE     LGT RAIN  57  55  93 N12G23    30.15R
BLOCK ISLAND   CLOUDY    61  54  77 NE16G23   30.11R
WESTERLY       CLOUDY    58  55  90 N9        30.13R

 IN MA

CITY           SKY/WX    TMP DP  RH WIND       PRES   REMARKS
BOSTON         CLOUDY    54  53  97 N16       30.18R
WORCESTER      CLOUDY    51  51 100 NE8G20    30.18S FOG
WESTFIELD      LGT RAIN  58  55  90 MISG      30.18F FOG
PROVINCETOWN   CLOUDY    57  54  88 NE21G29   30.13R
NANTUCKET      CLOUDY    60  55  83 NE20G30   30.06S
$$

ANZ330-335-338-340-345-350-353-355-021600-
COASTAL MARINE OBSERVATIONS


STATION/POSITION TIME  SKY/WX   TEMP    WIND        PRES    VSBY  WAVE
                                AIR SEA DIR/SP/G                  HT/PER
                 (UTC)          (F)     (DEG/KT/KT) (MB)    (MI)  (FT/S)
NY HARB ENTRANCE NOT AVBL
4S FIRE IS       1500               67                N/A           5/ 7
20S FIRE ISLAND  1500            61 67   20/ 17/ 21 1019.3          7/ 8
23SW MTP         1500                                 N/A           8/ 8
HUDSON CANYON    1500            65 69   10/ 21/ 25 1017.3
EXECUTION ROCKS  1500            63 68   40/ 14/ 19   N/A
WESTERN LI SOUND 1500            62      50/ 12/ 16   N/A           1/ 4
CENTRAL LI SOUND 1500            61 68  360/ 16/ 19   N/A           2/ 4
EASTERN LI SOUND 1400            61 65   20/ 14/ 17   N/A
ROBBINS REEF     1500            62      50/ 10/ 13 1019.7
$$


>>>>>>>>>>>>>>>>>>>>>>>>>>>> KEY <<<<<<<<<<<<<<<<<<<<<<<<<<<
>                                                          <
>     SKY/WX - SKY CONDITION/PRESENT WEATHER               <
>     TMP    - TEMPERATURE IN FAHRENHEIT                   <
>     DP     - DEWPOINT IN FAHRENHEIT                      <
>     RH     - RELATIVE HUMIDITY IN PERCENT                <
>     WIND   - DIRECTION AND SPEED IN MPH                  <
>     PRES   - MEAN SEA LEVEL PRESSURE IN INCHES OF HG     <
>     WCI    - WIND CHILL INDEX                            <
>     VSB    - VISIBILITY IN MILES                         <
>     HX     - HEAT INDEX                                  <
>     TC     - TEMPERATURE IN CELSIUS                      <
>     VRB    - VARIABLE WIND DIRECTION                     <
>                                                          <
>>>>>>>>>>>>>>>>>>>>>>>>>>>> KEY <<<<<<<<<<<<<<<<<<<<<<<<<<<




USA.gov is the U.S. government's official web portal to all federal, state and local government web resources and services.